Year,Month,Day,Hour,Minute,Value (Times are PST for temperature in C)
2015,04,16,00,00,8.80
2015,04,16,00,01,8.80
2015,04,16,00,02,8.80
2015,04,16,00,03,8.80
2015,04,16,00,04,8.80
2015,04,16,00,05,8.80
2015,04,16,00,06,8.80
2015,04,16,00,07,8.80
2015,04,16,00,08,8.80
2015,04,16,00,09,8.80
2015,04,16,00,10,8.80
2015,04,16,00,11,8.80
2015,04,16,00,12,8.80
2015,04,16,00,13,8.80
2015,04,16,00,14,8.80
2015,04,16,00,15,8.80
2015,04,16,00,16,8.80
2015,04,16,00,17,8.80
2015,04,16,00,18,8.80
2015,04,16,00,19,8.80
2015,04,16,00,20,8.80
2015,04,16,00,21,8.80
2015,04,16,00,22,8.80
2015,04,16,00,23,8.80
2015,04,16,00,24,8.80
2015,04,16,00,25,8.80
2015,04,16,00,26,8.80
2015,04,16,00,27,8.80
2015,04,16,00,28,8.70
2015,04,16,00,29,8.70
2015,04,16,00,30,8.70
2015,04,16,00,31,8.70
2015,04,16,00,32,8.70
2015,04,16,00,33,8.70
2015,04,16,00,34,8.70
2015,04,16,00,35,8.70
2015,04,16,00,36,8.70
2015,04,16,00,37,8.70
2015,04,16,00,38,8.70
2015,04,16,00,39,8.70
2015,04,16,00,40,8.70
2015,04,16,00,41,8.70
2015,04,16,00,42,8.70
2015,04,16,00,43,8.70
2015,04,16,00,44,8.70
2015,04,16,00,45,8.70
2015,04,16,00,46,8.70
2015,04,16,00,47,8.70
2015,04,16,00,48,8.70
2015,04,16,00,49,8.70
2015,04,16,00,50,8.70
2015,04,16,00,51,8.70
2015,04,16,00,52,8.70
2015,04,16,00,53,8.70
2015,04,16,00,54,8.70
2015,04,16,00,55,8.70
2015,04,16,00,56,8.70
2015,04,16,00,57,8.70
2015,04,16,00,58,8.70
2015,04,16,00,59,8.70
2015,04,16,01,00,8.70
2015,04,16,01,01,8.70
2015,04,16,01,02,8.70
2015,04,16,01,03,8.70
2015,04,16,01,04,8.70
2015,04,16,01,05,8.70
2015,04,16,01,06,8.60
2015,04,16,01,07,8.70
2015,04,16,01,08,8.70
2015,04,16,01,09,8.60
2015,04,16,01,10,8.60
2015,04,16,01,11,8.60
2015,04,16,01,12,8.60
2015,04,16,01,13,8.60
2015,04,16,01,14,8.60
2015,04,16,01,15,8.60
2015,04,16,01,16,8.60
2015,04,16,01,17,8.60
2015,04,16,01,18,8.60
2015,04,16,01,19,8.60
2015,04,16,01,20,8.60
2015,04,16,01,21,8.60
2015,04,16,01,22,8.50
2015,04,16,01,23,8.50
2015,04,16,01,24,8.50
2015,04,16,01,25,8.50
2015,04,16,01,26,8.50
2015,04,16,01,27,8.50
2015,04,16,01,28,8.50
2015,04,16,01,29,8.50
2015,04,16,01,30,8.50
2015,04,16,01,31,8.50
2015,04,16,01,32,8.40
2015,04,16,01,33,8.40
2015,04,16,01,34,8.40
2015,04,16,01,35,8.40
2015,04,16,01,36,8.40
2015,04,16,01,37,8.40
2015,04,16,01,38,8.40
2015,04,16,01,39,8.40
2015,04,16,01,40,8.40
2015,04,16,01,41,8.30
2015,04,16,01,42,8.30
2015,04,16,01,43,8.30
2015,04,16,01,44,8.30
2015,04,16,01,45,8.30
2015,04,16,01,46,8.30
2015,04,16,01,47,8.30
2015,04,16,01,48,8.30
2015,04,16,01,49,8.30
2015,04,16,01,50,8.30
2015,04,16,01,51,8.30
2015,04,16,01,52,8.30
2015,04,16,01,53,8.30
2015,04,16,01,54,8.30
2015,04,16,01,55,8.30
2015,04,16,01,56,8.30
2015,04,16,01,57,8.30
2015,04,16,01,58,8.30
2015,04,16,01,59,8.30
2015,04,16,02,00,8.30
2015,04,16,02,01,8.30
2015,04,16,02,02,8.30
2015,04,16,02,03,8.30
2015,04,16,02,04,8.20
2015,04,16,02,05,8.20
2015,04,16,02,06,8.20
2015,04,16,02,07,8.20
2015,04,16,02,08,8.20
2015,04,16,02,09,8.20
2015,04,16,02,10,8.20
2015,04,16,02,11,8.20
2015,04,16,02,12,8.20
2015,04,16,02,13,8.10
2015,04,16,02,14,8.10
2015,04,16,02,15,8.10
2015,04,16,02,16,8.10
2015,04,16,02,17,8.10
2015,04,16,02,18,8.10
2015,04,16,02,19,8.10
2015,04,16,02,20,8.10
2015,04,16,02,21,8.10
2015,04,16,02,22,8.10
2015,04,16,02,23,8.10
2015,04,16,02,24,8.10
2015,04,16,02,25,8.10
2015,04,16,02,26,8.10
2015,04,16,02,27,8.10
2015,04,16,02,28,8.10
2015,04,16,02,29,8.10
2015,04,16,02,30,8.10
2015,04,16,02,31,8.10
2015,04,16,02,32,8.10
2015,04,16,02,33,8.10
2015,04,16,02,34,8.10
2015,04,16,02,35,8.10
2015,04,16,02,36,8.10
2015,04,16,02,37,8.00
2015,04,16,02,38,8.00
2015,04,16,02,39,8.00
2015,04,16,02,40,8.00
2015,04,16,02,41,8.00
2015,04,16,02,42,7.90
2015,04,16,02,43,7.90
2015,04,16,02,44,7.90
2015,04,16,02,45,7.90
2015,04,16,02,46,7.90
2015,04,16,02,47,7.90
2015,04,16,02,48,7.90
2015,04,16,02,49,7.90
2015,04,16,02,50,7.90
2015,04,16,02,51,7.90
2015,04,16,02,52,7.90
2015,04,16,02,53,7.90
2015,04,16,02,54,7.90
2015,04,16,02,55,7.90
2015,04,16,02,56,7.90
2015,04,16,02,57,7.90
2015,04,16,02,58,7.90
2015,04,16,02,59,7.90
2015,04,16,03,00,7.90
2015,04,16,03,01,7.90
2015,04,16,03,02,7.90
2015,04,16,03,03,7.90
2015,04,16,03,04,7.90
2015,04,16,03,05,7.90
2015,04,16,03,06,7.80
2015,04,16,03,07,7.80
2015,04,16,03,08,7.80
2015,04,16,03,09,7.80
2015,04,16,03,10,7.80
2015,04,16,03,11,7.80
2015,04,16,03,12,7.80
2015,04,16,03,13,7.80
2015,04,16,03,14,7.80
2015,04,16,03,15,7.80
2015,04,16,03,16,7.80
2015,04,16,03,17,7.80
2015,04,16,03,18,7.80
2015,04,16,03,19,7.80
2015,04,16,03,20,7.70
2015,04,16,03,21,7.70
2015,04,16,03,22,7.70
2015,04,16,03,23,7.70
2015,04,16,03,24,7.70
2015,04,16,03,25,7.70
2015,04,16,03,26,7.70
2015,04,16,03,27,7.70
2015,04,16,03,28,7.70
2015,04,16,03,29,7.70
2015,04,16,03,30,7.60
2015,04,16,03,31,7.60
2015,04,16,03,32,7.60
2015,04,16,03,33,7.60
2015,04,16,03,34,7.60
2015,04,16,03,35,7.60
2015,04,16,03,36,7.60
2015,04,16,03,37,7.60
2015,04,16,03,38,7.60
2015,04,16,03,39,7.60
2015,04,16,03,40,7.60
2015,04,16,03,41,7.60
2015,04,16,03,42,7.60
2015,04,16,03,43,7.60
2015,04,16,03,44,7.60
2015,04,16,03,45,7.70
2015,04,16,03,46,7.70
2015,04,16,03,47,7.70
2015,04,16,03,48,7.70
2015,04,16,03,49,7.70
2015,04,16,03,50,7.70
2015,04,16,03,51,7.70
2015,04,16,03,52,7.70
2015,04,16,03,53,7.70
2015,04,16,03,54,7.60
2015,04,16,03,55,7.60
2015,04,16,03,56,7.70
2015,04,16,03,57,7.70
2015,04,16,03,58,7.70
2015,04,16,03,59,7.70
2015,04,16,04,00,7.80
2015,04,16,04,01,7.80
2015,04,16,04,02,7.80
2015,04,16,04,03,7.90
2015,04,16,04,04,7.90
2015,04,16,04,05,8.00
2015,04,16,04,06,8.00
2015,04,16,04,07,8.10
2015,04,16,04,08,8.10
2015,04,16,04,09,8.20
2015,04,16,04,10,8.20
2015,04,16,04,11,8.20
2015,04,16,04,12,8.20
2015,04,16,04,13,8.30
2015,04,16,04,14,8.30
2015,04,16,04,15,8.30
2015,04,16,04,16,8.30
2015,04,16,04,17,8.30
2015,04,16,04,18,8.40
2015,04,16,04,19,8.40
2015,04,16,04,20,8.40
2015,04,16,04,21,8.40
2015,04,16,04,22,8.40
2015,04,16,04,23,8.40
2015,04,16,04,24,8.40
2015,04,16,04,25,8.40
2015,04,16,04,26,8.40
2015,04,16,04,27,8.40
2015,04,16,04,28,8.40
2015,04,16,04,29,8.30
2015,04,16,04,30,8.30
2015,04,16,04,31,8.30
2015,04,16,04,32,8.30
2015,04,16,04,33,8.30
2015,04,16,04,34,8.30
2015,04,16,04,35,8.30
2015,04,16,04,36,8.30
2015,04,16,04,37,8.30
2015,04,16,04,38,8.30
2015,04,16,04,39,8.30
2015,04,16,04,40,8.30
2015,04,16,04,41,8.30
2015,04,16,04,42,8.30
2015,04,16,04,43,8.30
2015,04,16,04,44,8.20
2015,04,16,04,45,8.20
2015,04,16,04,46,8.20
2015,04,16,04,47,8.20
2015,04,16,04,48,8.10
2015,04,16,04,49,8.10
2015,04,16,04,50,8.10
2015,04,16,04,51,8.10
2015,04,16,04,52,8.10
2015,04,16,04,53,8.00
2015,04,16,04,54,8.00
2015,04,16,04,55,8.00
2015,04,16,04,56,8.00
2015,04,16,04,57,8.00
2015,04,16,04,58,8.00
2015,04,16,04,59,7.90
2015,04,16,05,00,7.90
2015,04,16,05,01,7.90
2015,04,16,05,02,7.90
2015,04,16,05,03,7.90
2015,04,16,05,04,7.90
2015,04,16,05,05,7.90
2015,04,16,05,06,7.90
2015,04,16,05,07,7.90
2015,04,16,05,08,7.90
2015,04,16,05,09,7.90
2015,04,16,05,10,7.90
2015,04,16,05,11,7.80
2015,04,16,05,12,7.80
2015,04,16,05,13,7.80
2015,04,16,05,14,7.80
2015,04,16,05,15,7.80
2015,04,16,05,16,7.80
2015,04,16,05,17,7.80
2015,04,16,05,18,7.80
2015,04,16,05,19,7.80
2015,04,16,05,20,7.80
2015,04,16,05,21,7.70
2015,04,16,05,22,7.70
2015,04,16,05,23,7.70
2015,04,16,05,24,7.70
2015,04,16,05,25,7.70
2015,04,16,05,26,7.70
2015,04,16,05,27,7.70
2015,04,16,05,28,7.70
2015,04,16,05,29,7.60
2015,04,16,05,30,7.60
2015,04,16,05,31,7.60
2015,04,16,05,32,7.60
2015,04,16,05,33,7.60
2015,04,16,05,34,7.50
2015,04,16,05,35,7.50
2015,04,16,05,36,7.50
2015,04,16,05,37,7.50
2015,04,16,05,38,7.50
2015,04,16,05,39,7.40
2015,04,16,05,40,7.40
2015,04,16,05,41,7.40
2015,04,16,05,42,7.40
2015,04,16,05,43,7.40
2015,04,16,05,44,7.40
2015,04,16,05,45,7.40
2015,04,16,05,46,7.30
2015,04,16,05,47,7.20
2015,04,16,05,48,7.10
2015,04,16,05,49,7.00
2015,04,16,05,50,6.90
2015,04,16,05,51,6.80
2015,04,16,05,52,6.70
2015,04,16,05,53,6.60
2015,04,16,05,54,6.50
2015,04,16,05,55,6.40
2015,04,16,05,56,6.40
2015,04,16,05,57,6.30
2015,04,16,05,58,6.30
2015,04,16,05,59,6.20
2015,04,16,06,00,6.20
2015,04,16,06,01,6.20
2015,04,16,06,02,6.20
2015,04,16,06,03,6.10
2015,04,16,06,04,6.10
2015,04,16,06,05,6.10
2015,04,16,06,06,6.10
2015,04,16,06,07,6.10
2015,04,16,06,08,6.10
2015,04,16,06,09,6.10
2015,04,16,06,10,6.10
2015,04,16,06,11,6.10
2015,04,16,06,12,6.10
2015,04,16,06,13,6.10
2015,04,16,06,14,6.20
2015,04,16,06,15,6.20
2015,04,16,06,16,6.20
2015,04,16,06,17,6.20
2015,04,16,06,18,6.20
2015,04,16,06,19,6.30
2015,04,16,06,20,6.30
2015,04,16,06,21,6.30
2015,04,16,06,22,6.30
2015,04,16,06,23,6.30
2015,04,16,06,24,6.30
2015,04,16,06,25,6.30
2015,04,16,06,26,6.30
2015,04,16,06,27,6.30
2015,04,16,06,28,6.30
2015,04,16,06,29,6.20
2015,04,16,06,30,6.10
2015,04,16,06,31,6.10
2015,04,16,06,32,6.00
2015,04,16,06,33,6.00
2015,04,16,06,34,5.90
2015,04,16,06,35,5.90
2015,04,16,06,36,5.90
2015,04,16,06,37,5.90
2015,04,16,06,38,5.90
2015,04,16,06,39,5.90
2015,04,16,06,40,5.90
2015,04,16,06,41,5.90
2015,04,16,06,42,5.90
2015,04,16,06,43,5.90
2015,04,16,06,44,5.80
2015,04,16,06,45,5.80
2015,04,16,06,46,5.80
2015,04,16,06,47,5.80
2015,04,16,06,48,5.80
2015,04,16,06,49,5.80
2015,04,16,06,50,5.80
2015,04,16,06,51,5.80
2015,04,16,06,52,5.80
2015,04,16,06,53,5.80
2015,04,16,06,54,5.80
2015,04,16,06,55,5.80
2015,04,16,06,56,5.80
2015,04,16,06,57,5.80
2015,04,16,06,58,5.70
2015,04,16,06,59,5.70
2015,04,16,07,00,5.70
2015,04,16,07,01,5.70
2015,04,16,07,02,5.70
2015,04,16,07,03,5.70
2015,04,16,07,04,5.70
2015,04,16,07,05,5.70
2015,04,16,07,06,5.70
2015,04,16,07,07,5.70
2015,04,16,07,08,5.70
2015,04,16,07,09,5.80
2015,04,16,07,10,5.80
2015,04,16,07,11,5.80
2015,04,16,07,12,5.80
2015,04,16,07,13,5.80
2015,04,16,07,14,5.80
2015,04,16,07,15,5.80
2015,04,16,07,16,5.80
2015,04,16,07,17,5.80
2015,04,16,07,18,5.80
2015,04,16,07,19,5.70
2015,04,16,07,20,5.70
2015,04,16,07,21,5.70
2015,04,16,07,22,5.70
2015,04,16,07,23,5.70
2015,04,16,07,24,5.80
2015,04,16,07,25,5.80
2015,04,16,07,26,5.80
2015,04,16,07,27,5.80
2015,04,16,07,28,5.80
2015,04,16,07,29,5.80
2015,04,16,07,30,5.80
2015,04,16,07,31,5.90
2015,04,16,07,32,5.90
2015,04,16,07,33,5.90
2015,04,16,07,34,5.90
2015,04,16,07,35,5.90
2015,04,16,07,36,5.90
2015,04,16,07,37,5.90
2015,04,16,07,38,6.00
2015,04,16,07,39,6.00
2015,04,16,07,40,6.00
2015,04,16,07,41,6.00
2015,04,16,07,42,6.00
2015,04,16,07,43,6.10
2015,04,16,07,44,6.10
2015,04,16,07,45,6.10
2015,04,16,07,46,6.10
2015,04,16,07,47,6.10
2015,04,16,07,48,6.10
2015,04,16,07,49,6.10
2015,04,16,07,50,6.20
2015,04,16,07,51,6.20
2015,04,16,07,52,6.20
2015,04,16,07,53,6.20
2015,04,16,07,54,6.20
2015,04,16,07,55,6.20
2015,04,16,07,56,6.20
2015,04,16,07,57,6.20
2015,04,16,07,58,6.20
2015,04,16,07,59,6.30
2015,04,16,08,00,6.30
2015,04,16,08,01,6.30
2015,04,16,08,02,6.30
2015,04,16,08,03,6.30
2015,04,16,08,04,6.40
2015,04,16,08,05,6.40
2015,04,16,08,06,6.40
2015,04,16,08,07,6.50
2015,04,16,08,08,6.50
2015,04,16,08,09,6.60
2015,04,16,08,10,6.60
2015,04,16,08,11,6.70
2015,04,16,08,12,6.70
2015,04,16,08,13,6.70
2015,04,16,08,14,6.80
2015,04,16,08,15,6.80
2015,04,16,08,16,6.80
2015,04,16,08,17,6.90
2015,04,16,08,18,6.90
2015,04,16,08,19,6.90
2015,04,16,08,20,7.00
2015,04,16,08,21,7.00
2015,04,16,08,22,7.10
2015,04,16,08,23,7.10
2015,04,16,08,24,7.20
2015,04,16,08,25,7.20
2015,04,16,08,26,7.20
2015,04,16,08,27,7.30
2015,04,16,08,28,7.30
2015,04,16,08,29,7.30
2015,04,16,08,30,7.40
2015,04,16,08,31,7.40
2015,04,16,08,32,7.50
2015,04,16,08,33,7.60
2015,04,16,08,34,7.60
2015,04,16,08,35,7.70
2015,04,16,08,36,7.80
2015,04,16,08,37,7.90
2015,04,16,08,38,8.00
2015,04,16,08,39,8.00
2015,04,16,08,40,8.10
2015,04,16,08,41,8.20
2015,04,16,08,42,8.20
2015,04,16,08,43,8.30
2015,04,16,08,44,8.30
2015,04,16,08,45,8.40
2015,04,16,08,46,8.50
2015,04,16,08,47,8.50
2015,04,16,08,48,8.60
2015,04,16,08,49,8.70
2015,04,16,08,50,8.70
2015,04,16,08,51,8.80
2015,04,16,08,52,8.90
2015,04,16,08,53,9.00
2015,04,16,08,54,9.10
2015,04,16,08,55,9.10
2015,04,16,08,56,9.20
2015,04,16,08,57,9.30
2015,04,16,08,58,9.40
2015,04,16,08,59,9.40
2015,04,16,09,00,9.50
2015,04,16,09,01,9.60
2015,04,16,09,02,9.60
2015,04,16,09,03,9.60
2015,04,16,09,04,9.70
2015,04,16,09,05,9.70
2015,04,16,09,06,9.80
2015,04,16,09,07,9.80
2015,04,16,09,08,9.80
2015,04,16,09,09,9.80
2015,04,16,09,10,9.80
2015,04,16,09,11,9.90
2015,04,16,09,12,9.90
2015,04,16,09,13,9.90
2015,04,16,09,14,10.00
2015,04,16,09,15,10.00
2015,04,16,09,16,10.00
2015,04,16,09,17,10.10
2015,04,16,09,18,10.10
2015,04,16,09,19,10.10
2015,04,16,09,20,10.10
2015,04,16,09,21,10.20
2015,04,16,09,22,10.20
2015,04,16,09,23,10.30
2015,04,16,09,24,10.30
2015,04,16,09,25,10.40
2015,04,16,09,26,10.50
2015,04,16,09,27,10.60
2015,04,16,09,28,10.70
2015,04,16,09,29,10.70
2015,04,16,09,30,10.80
2015,04,16,09,31,10.80
2015,04,16,09,32,10.80
2015,04,16,09,33,10.80
2015,04,16,09,34,10.80
2015,04,16,09,35,10.80
2015,04,16,09,36,10.80
2015,04,16,09,37,10.80
2015,04,16,09,38,10.70
2015,04,16,09,39,10.70
2015,04,16,09,40,10.70
2015,04,16,09,41,10.70
2015,04,16,09,42,10.70
2015,04,16,09,43,10.70
2015,04,16,09,44,10.70
2015,04,16,09,45,10.70
2015,04,16,09,46,10.80
2015,04,16,09,47,10.80
2015,04,16,09,48,10.80
2015,04,16,09,49,10.80
2015,04,16,09,50,10.90
2015,04,16,09,51,10.90
2015,04,16,09,52,10.90
2015,04,16,09,53,11.00
2015,04,16,09,54,11.00
2015,04,16,09,55,11.00
2015,04,16,09,56,11.10
2015,04,16,09,57,11.10
2015,04,16,09,58,11.00
2015,04,16,09,59,11.00
2015,04,16,10,00,11.00
2015,04,16,10,01,11.00
2015,04,16,10,02,11.10
2015,04,16,10,03,11.10
2015,04,16,10,04,11.10
2015,04,16,10,05,11.10
2015,04,16,10,06,11.10
2015,04,16,10,07,11.10
2015,04,16,10,08,11.10
2015,04,16,10,09,11.10
2015,04,16,10,10,11.10
2015,04,16,10,11,11.10
2015,04,16,10,12,11.20
2015,04,16,10,13,11.20
2015,04,16,10,14,11.20
2015,04,16,10,15,11.20
2015,04,16,10,16,11.20
2015,04,16,10,17,11.30
2015,04,16,10,18,11.30
2015,04,16,10,19,11.30
2015,04,16,10,20,11.30
2015,04,16,10,21,11.20
2015,04,16,10,22,11.20
2015,04,16,10,23,11.20
2015,04,16,10,24,11.20
2015,04,16,10,25,11.20
2015,04,16,10,26,11.20
2015,04,16,10,27,11.20
2015,04,16,10,28,11.20
2015,04,16,10,29,11.30
2015,04,16,10,30,11.30
2015,04,16,10,31,11.30
2015,04,16,10,32,11.30
2015,04,16,10,33,11.30
2015,04,16,10,34,11.30
2015,04,16,10,35,11.30
2015,04,16,10,36,11.30
2015,04,16,10,37,11.30
2015,04,16,10,38,11.30
2015,04,16,10,39,11.30
2015,04,16,10,40,11.30
2015,04,16,10,41,11.30
2015,04,16,10,42,11.30
2015,04,16,10,43,11.30
2015,04,16,10,44,11.40
2015,04,16,10,45,11.40
2015,04,16,10,46,11.40
2015,04,16,10,47,11.40
2015,04,16,10,48,11.50
2015,04,16,10,49,11.60
2015,04,16,10,50,11.60
2015,04,16,10,51,11.60
2015,04,16,10,52,11.60
2015,04,16,10,53,11.60
2015,04,16,10,54,11.60
2015,04,16,10,55,11.60
2015,04,16,10,56,11.60
2015,04,16,10,57,11.60
2015,04,16,10,58,11.50
2015,04,16,10,59,11.50
2015,04,16,11,00,11.50
2015,04,16,11,01,11.50
2015,04,16,11,02,11.60
2015,04,16,11,03,11.60
2015,04,16,11,04,11.60
2015,04,16,11,05,11.70
2015,04,16,11,06,11.70
2015,04,16,11,07,11.80
2015,04,16,11,08,11.80
2015,04,16,11,09,11.90
2015,04,16,11,10,11.90
2015,04,16,11,11,11.90
2015,04,16,11,12,11.90
2015,04,16,11,13,11.90
2015,04,16,11,14,11.90
2015,04,16,11,15,12.00
2015,04,16,11,16,12.00
2015,04,16,11,17,12.00
2015,04,16,11,18,11.90
2015,04,16,11,19,11.90
2015,04,16,11,20,11.90
2015,04,16,11,21,11.90
2015,04,16,11,22,11.80
2015,04,16,11,23,11.80
2015,04,16,11,24,11.80
2015,04,16,11,25,11.90
2015,04,16,11,26,11.90
2015,04,16,11,27,12.00
2015,04,16,11,28,12.00
2015,04,16,11,29,12.10
2015,04,16,11,30,12.10
2015,04,16,11,31,12.10
2015,04,16,11,32,12.20
2015,04,16,11,33,12.20
2015,04,16,11,34,12.20
2015,04,16,11,35,12.20
2015,04,16,11,36,12.20
2015,04,16,11,37,12.20
2015,04,16,11,38,12.30
2015,04,16,11,39,12.30
2015,04,16,11,40,12.30
2015,04,16,11,41,12.30
2015,04,16,11,42,12.30
2015,04,16,11,43,12.30
2015,04,16,11,44,12.40
2015,04,16,11,45,12.40
2015,04,16,11,46,12.50
2015,04,16,11,47,12.50
2015,04,16,11,48,12.50
2015,04,16,11,49,12.50
2015,04,16,11,50,12.50
2015,04,16,11,51,12.40
2015,04,16,11,52,12.50
2015,04,16,11,53,12.50
2015,04,16,11,54,12.50
2015,04,16,11,55,12.60
2015,04,16,11,56,12.60
2015,04,16,11,57,12.60
2015,04,16,11,58,12.50
2015,04,16,11,59,12.40
2015,04,16,12,00,12.40
2015,04,16,12,01,12.30
2015,04,16,12,02,12.30
2015,04,16,12,03,12.20
2015,04,16,12,04,12.20
2015,04,16,12,05,12.20
2015,04,16,12,06,12.20
2015,04,16,12,07,12.20
2015,04,16,12,08,12.30
2015,04,16,12,09,12.30
2015,04,16,12,10,12.40
2015,04,16,12,11,12.50
2015,04,16,12,12,12.50
2015,04,16,12,13,12.60
2015,04,16,12,14,12.70
2015,04,16,12,15,12.80
2015,04,16,12,16,12.80
2015,04,16,12,17,12.90
2015,04,16,12,18,13.00
2015,04,16,12,19,13.00
2015,04,16,12,20,13.10
2015,04,16,12,21,13.10
2015,04,16,12,22,13.10
2015,04,16,12,23,13.10
2015,04,16,12,24,13.10
2015,04,16,12,25,13.20
2015,04,16,12,26,13.20
2015,04,16,12,27,13.20
2015,04,16,12,28,13.20
2015,04,16,12,29,13.20
2015,04,16,12,30,13.10
2015,04,16,12,31,13.20
2015,04,16,12,32,13.20
2015,04,16,12,33,13.20
2015,04,16,12,34,13.20
2015,04,16,12,35,13.20
2015,04,16,12,36,13.20
2015,04,16,12,37,13.20
2015,04,16,12,38,13.20
2015,04,16,12,39,13.20
2015,04,16,12,40,13.20
2015,04,16,12,41,13.10
2015,04,16,12,42,13.10
2015,04,16,12,43,13.10
2015,04,16,12,44,13.10
2015,04,16,12,45,13.00
2015,04,16,12,46,12.90
2015,04,16,12,47,12.90
2015,04,16,12,48,12.80
2015,04,16,12,49,12.80
2015,04,16,12,50,12.80
2015,04,16,12,51,12.80
2015,04,16,12,52,12.80
2015,04,16,12,53,12.80
2015,04,16,12,54,12.80
2015,04,16,12,55,12.90
2015,04,16,12,56,12.90
2015,04,16,12,57,12.90
2015,04,16,12,58,12.90
2015,04,16,12,59,12.90
2015,04,16,13,00,13.00
2015,04,16,13,01,13.00
2015,04,16,13,02,13.00
2015,04,16,13,03,13.10
2015,04,16,13,04,13.10
2015,04,16,13,05,13.20
2015,04,16,13,06,13.20
2015,04,16,13,07,13.20
2015,04,16,13,08,13.10
2015,04,16,13,09,13.00
2015,04,16,13,10,12.90
2015,04,16,13,11,12.90
2015,04,16,13,12,12.90
2015,04,16,13,13,12.90
2015,04,16,13,14,12.90
2015,04,16,13,15,13.00
2015,04,16,13,16,13.10
2015,04,16,13,17,13.10
2015,04,16,13,18,13.10
2015,04,16,13,19,13.20
2015,04,16,13,20,13.20
2015,04,16,13,21,13.30
2015,04,16,13,22,13.30
2015,04,16,13,23,13.30
2015,04,16,13,24,13.20
2015,04,16,13,25,13.20
2015,04,16,13,26,13.10
2015,04,16,13,27,13.10
2015,04,16,13,28,13.10
2015,04,16,13,29,13.00
2015,04,16,13,30,13.10
2015,04,16,13,31,13.20
2015,04,16,13,32,13.20
2015,04,16,13,33,13.20
2015,04,16,13,34,13.20
2015,04,16,13,35,13.20
2015,04,16,13,36,13.20
2015,04,16,13,37,13.20
2015,04,16,13,38,13.20
2015,04,16,13,39,13.20
2015,04,16,13,40,13.20
2015,04,16,13,41,13.30
2015,04,16,13,42,13.30
2015,04,16,13,43,13.40
2015,04,16,13,44,13.40
2015,04,16,13,45,13.40
2015,04,16,13,46,13.40
2015,04,16,13,47,13.40
2015,04,16,13,48,13.40
2015,04,16,13,49,13.40
2015,04,16,13,50,13.50
2015,04,16,13,51,13.60
2015,04,16,13,52,13.60
2015,04,16,13,53,13.70
2015,04,16,13,54,13.80
2015,04,16,13,55,13.80
2015,04,16,13,56,13.80
2015,04,16,13,57,13.70
2015,04,16,13,58,13.60
2015,04,16,13,59,13.60
2015,04,16,14,00,13.70
2015,04,16,14,01,13.80
2015,04,16,14,02,13.80
2015,04,16,14,03,13.70
2015,04,16,14,04,13.70
2015,04,16,14,05,13.80
2015,04,16,14,06,13.80
2015,04,16,14,07,13.90
2015,04,16,14,08,14.00
2015,04,16,14,09,14.00
2015,04,16,14,10,14.10
2015,04,16,14,11,14.20
2015,04,16,14,12,14.20
2015,04,16,14,13,14.20
2015,04,16,14,14,14.20
2015,04,16,14,15,14.20
2015,04,16,14,16,14.00
2015,04,16,14,17,13.90
2015,04,16,14,18,13.80
2015,04,16,14,19,13.80
2015,04,16,14,20,13.80
2015,04,16,14,21,13.80
2015,04,16,14,22,13.90
2015,04,16,14,23,14.00
2015,04,16,14,24,14.20
2015,04,16,14,25,14.30
2015,04,16,14,26,14.40
2015,04,16,14,27,14.40
2015,04,16,14,28,14.40
2015,04,16,14,29,14.40
2015,04,16,14,30,14.40
2015,04,16,14,31,14.50
2015,04,16,14,32,14.60
2015,04,16,14,33,14.50
2015,04,16,14,34,14.50
2015,04,16,14,35,14.50
2015,04,16,14,36,14.40
2015,04,16,14,37,14.40
2015,04,16,14,38,14.40
2015,04,16,14,39,14.40
2015,04,16,14,40,14.40
2015,04,16,14,41,14.30
2015,04,16,14,42,14.20
2015,04,16,14,43,14.20
2015,04,16,14,44,14.20
2015,04,16,14,45,14.30
2015,04,16,14,46,14.40
2015,04,16,14,47,14.50
2015,04,16,14,48,14.50
2015,04,16,14,49,14.50
2015,04,16,14,50,14.50
2015,04,16,14,51,14.40
2015,04,16,14,52,14.40
2015,04,16,14,53,14.30
2015,04,16,14,54,14.30
2015,04,16,14,55,14.30
2015,04,16,14,56,14.30
2015,04,16,14,57,14.40
2015,04,16,14,58,14.50
2015,04,16,14,59,14.50
2015,04,16,15,00,14.50
2015,04,16,15,01,14.50
2015,04,16,15,02,14.50
2015,04,16,15,03,14.50
2015,04,16,15,04,14.40
2015,04,16,15,05,14.40
2015,04,16,15,06,14.40
2015,04,16,15,07,14.40
2015,04,16,15,08,14.50
2015,04,16,15,09,14.50
2015,04,16,15,10,14.60
2015,04,16,15,11,14.70
2015,04,16,15,12,14.70
2015,04,16,15,13,14.80
2015,04,16,15,14,14.80
2015,04,16,15,15,14.80
2015,04,16,15,16,14.80
2015,04,16,15,17,14.90
2015,04,16,15,18,14.90
2015,04,16,15,19,14.90
2015,04,16,15,20,14.90
2015,04,16,15,21,15.00
2015,04,16,15,22,15.10
2015,04,16,15,23,15.10
2015,04,16,15,24,15.00
2015,04,16,15,25,14.90
2015,04,16,15,26,14.70
2015,04,16,15,27,14.60
2015,04,16,15,28,14.50
2015,04,16,15,29,14.40
2015,04,16,15,30,14.40
2015,04,16,15,31,14.40
2015,04,16,15,32,14.40
2015,04,16,15,33,14.50
2015,04,16,15,34,14.60
2015,04,16,15,35,14.60
2015,04,16,15,36,14.70
2015,04,16,15,37,14.70
2015,04,16,15,38,14.60
2015,04,16,15,39,14.60
2015,04,16,15,40,14.70
2015,04,16,15,41,14.70
2015,04,16,15,42,14.80
2015,04,16,15,43,14.80
2015,04,16,15,44,14.80
2015,04,16,15,45,14.80
2015,04,16,15,46,14.70
2015,04,16,15,47,14.70
2015,04,16,15,48,14.70
2015,04,16,15,49,14.70
2015,04,16,15,50,14.70
2015,04,16,15,51,14.70
2015,04,16,15,52,14.60
2015,04,16,15,53,14.50
2015,04,16,15,54,14.40
2015,04,16,15,55,14.40
2015,04,16,15,56,14.40
2015,04,16,15,57,14.40
2015,04,16,15,58,14.40
2015,04,16,15,59,14.40
2015,04,16,16,00,14.50
2015,04,16,16,01,14.50
2015,04,16,16,02,14.60
2015,04,16,16,03,14.60
2015,04,16,16,04,14.60
2015,04,16,16,05,14.60
2015,04,16,16,06,14.50
2015,04,16,16,07,14.50
2015,04,16,16,08,14.40
2015,04,16,16,09,14.30
2015,04,16,16,10,14.30
2015,04,16,16,11,14.20
2015,04,16,16,12,14.20
2015,04,16,16,13,14.20
2015,04,16,16,14,14.20
2015,04,16,16,15,14.30
2015,04,16,16,16,14.30
2015,04,16,16,17,14.40
2015,04,16,16,18,14.40
2015,04,16,16,19,14.50
2015,04,16,16,20,14.50
2015,04,16,16,21,14.40
2015,04,16,16,22,14.40
2015,04,16,16,23,14.30
2015,04,16,16,24,14.30
2015,04,16,16,25,14.20
2015,04,16,16,26,14.20
2015,04,16,16,27,14.10
2015,04,16,16,28,14.10
2015,04,16,16,29,14.10
2015,04,16,16,30,14.20
2015,04,16,16,31,14.20
2015,04,16,16,32,14.20
2015,04,16,16,33,14.30
2015,04,16,16,34,14.30
2015,04,16,16,35,14.30
2015,04,16,16,36,14.40
2015,04,16,16,37,14.40
2015,04,16,16,38,14.50
2015,04,16,16,39,14.40
2015,04,16,16,40,14.30
2015,04,16,16,41,14.30
2015,04,16,16,42,14.20
2015,04,16,16,43,14.20
2015,04,16,16,44,14.20
2015,04,16,16,45,14.20
2015,04,16,16,46,14.30
2015,04,16,16,47,14.30
2015,04,16,16,48,14.20
2015,04,16,16,49,14.10
2015,04,16,16,50,14.10
2015,04,16,16,51,14.10
2015,04,16,16,52,14.10
2015,04,16,16,53,14.10
2015,04,16,16,54,14.20
2015,04,16,16,55,14.20
2015,04,16,16,56,14.30
2015,04,16,16,57,14.30
2015,04,16,16,58,14.40
2015,04,16,16,59,14.50
2015,04,16,17,00,14.50
2015,04,16,17,01,14.50
2015,04,16,17,02,14.50
2015,04,16,17,03,14.50
2015,04,16,17,04,14.50
2015,04,16,17,05,14.40
2015,04,16,17,06,14.30
2015,04,16,17,07,14.30
2015,04,16,17,08,14.20
2015,04,16,17,09,14.20
2015,04,16,17,10,14.20
2015,04,16,17,11,14.20
2015,04,16,17,12,14.20
2015,04,16,17,13,14.10
2015,04,16,17,14,14.00
2015,04,16,17,15,14.00
2015,04,16,17,16,13.90
2015,04,16,17,17,14.00
2015,04,16,17,18,14.00
2015,04,16,17,19,14.10
2015,04,16,17,20,14.10
2015,04,16,17,21,14.20
2015,04,16,17,22,14.30
2015,04,16,17,23,14.40
2015,04,16,17,24,14.50
2015,04,16,17,25,14.60
2015,04,16,17,26,14.70
2015,04,16,17,27,14.70
2015,04,16,17,28,14.80
2015,04,16,17,29,14.80
2015,04,16,17,30,14.80
2015,04,16,17,31,14.80
2015,04,16,17,32,14.80
2015,04,16,17,33,14.80
2015,04,16,17,34,14.70
2015,04,16,17,35,14.70
2015,04,16,17,36,14.70
2015,04,16,17,37,14.70
2015,04,16,17,38,14.60
2015,04,16,17,39,14.60
2015,04,16,17,40,14.50
2015,04,16,17,41,14.50
2015,04,16,17,42,14.40
2015,04,16,17,43,14.40